Flag for Portugal Weather past 2 weeks in Vila Nova de Gaia, Portugal

Now
63 °F

Passing clouds.


Feels Like: 63 °F
Forecast: 51 / 57 °F
Wind: 18 mph from South

Location: Porto / Pedras Rubras

Current Time: May 4, 2015 at 7:04:00 AM

Latest Report: May 4, 2015 at 6:30 AM


Visibility: N/A

Pressure: 29.56 "Hg

Humidity: 88%

Dew point: 59 °F

Location of Vila Nova de GaiaLocation

Historic Weather in Vila Nova de Gaia — Graph

°F

Vila Nova de Gaia temperature yesterday

Maximum temperature yesterday: 63 °F (at 4:30 PM)
Minimum temperature yesterday: 59 °F (at 12:00 AM)
Average temperature yesterday: 60 °F

Past Weeks' High & Low Weather Summary

 TemperatureHumidityPressure
High66 °F (Apr 23, 1:30 PM)100% (Apr 19, 6:00 AM)30.18 "Hg (Apr 19, 6:00 AM)
Low45 °F (Apr 20, 4:00 AM)56% (Apr 20, 2:00 PM)29.59 "Hg (May 4, 5:30 AM)
Average58 °F88%30.01 "Hg
* Reported Apr 19 6:00 AM — May 4 6:00 AM, Vila Nova de Gaia, Weather by CustomWeather, © 2015

Note: Actual official high and low records may vary slightly from our data, if they occured in-between our weather recording intervals... More about our weather records

Advertising

Vila Nova de Gaia weather history for previous 24 hours

 ConditionsComfort  
Time TempWeatherWind HumidityBarometerVisibility
6:00 AM
Mon, May 4
63 °FPassing clouds.20 mph88%29.59 "HgN/A
5:30 AM63 °FPassing clouds.18 mph88%29.59 "HgN/A
5:00 AM61 °FPartly cloudy.14 mph94%29.62 "HgN/A
4:30 AM61 °FPassing clouds.14 mph94%29.65 "HgN/A
4:00 AM61 °FLight rain. Passing clouds.17 mph94%29.65 "Hg6 mi
3:30 AM61 °FPartly cloudy.21 mph94%29.68 "HgN/A
3:00 AM61 °FPartly cloudy.18 mph94%29.68 "HgN/A
2:30 AM61 °FLight rain. Partly cloudy.20 mph94%29.68 "Hg5 mi
2:00 AM61 °FRain. Passing clouds.17 mph100%29.74 "Hg4 mi
1:30 AM61 °FRain. Fog.13 mph100%29.74 "Hg3 mi
1:00 AM61 °FRain. Partly cloudy.10 mph100%29.74 "Hg5 mi
12:30 AM61 °FPassing clouds.8 mph100%29.74 "Hg4 mi
12:00 AM61 °FDrizzle. Fog.13 mph100%29.74 "Hg2 mi
11:30 PM
Sun, May 3
61 °FDrizzle. Fog.15 mph100%29.77 "Hg2 mi
11:00 PM61 °FDrizzle. Fog.15 mph100%29.77 "Hg3 mi
9:30 PM61 °FDrizzle. Fog.17 mph100%29.80 "Hg2 mi
9:00 PM61 °FPartly sunny.15 mph100%29.80 "Hg5 mi
8:30 PM61 °FPartly sunny.13 mph100%29.80 "Hg4 mi
8:00 PM61 °FFog.14 mph100%29.80 "Hg3 mi
7:30 PM61 °FLow clouds.15 mph100%29.80 "Hg5 mi
7:00 PM61 °FDrizzle. Fog.13 mph100%29.83 "Hg2 mi
6:30 PM61 °FDrizzle. Fog.14 mph100%29.80 "Hg2 mi
6:00 PM61 °FDrizzle. Fog.13 mph100%29.83 "Hg1 mi
5:30 PM61 °FDrizzle. Fog.14 mph100%29.83 "Hg1 mi
5:00 PM61 °FLow clouds.13 mph100%29.83 "Hg2 mi
4:30 PM63 °FDrizzle. Fog.13 mph100%29.83 "Hg2 mi
4:00 PM61 °FDrizzle. Fog.12 mph100%29.83 "Hg1 mi
3:30 PM61 °FDrizzle. Fog.14 mph100%29.83 "Hg1 mi
3:00 PM61 °FDrizzle. Fog.13 mph100%29.86 "Hg2 mi
2:30 PM61 °FDrizzle. Fog.15 mph100%29.86 "Hg1 mi
2:00 PM61 °FDrizzle. Fog.15 mph100%29.86 "Hg1 mi
1:30 PM61 °FDrizzle. Fog.14 mph100%29.86 "Hg1 mi
1:00 PM61 °FDrizzle. Fog.13 mph100%29.86 "Hg1 mi
12:30 PM61 °FDrizzle. Fog.14 mph100%29.86 "Hg1 mi
12:00 PM61 °FDrizzle. Fog.15 mph100%29.86 "Hg1 mi
11:30 AM61 °FDrizzle. Fog.16 mph100%29.86 "Hg2 mi
11:00 AM61 °FDrizzle. Fog.15 mph100%29.86 "Hg2 mi
10:30 AM61 °FDrizzle. Fog.16 mph100%29.83 "Hg1 mi
10:00 AM61 °FDrizzle. Fog.17 mph94%29.83 "Hg2 mi
9:30 AM59 °FRain. Fog.18 mph100%29.83 "Hg1 mi
9:00 AM59 °FRain. Fog.16 mph100%29.83 "Hg2 mi
8:30 AM59 °FLight rain. Fog.20 mph100%29.83 "Hg1 mi
8:00 AM59 °FDrizzle. Fog.18 mph100%29.83 "Hg2 mi
7:30 AM59 °FDrizzle. Fog.16 mph100%29.83 "Hg1 mi
7:00 AM59 °FDrizzle. Fog.17 mph100%29.80 "Hg2 mi
Weather by CustomWeather, © 2015

See weather overviewHow to use our weather pages